Language: 


Des rapports , des résumés tant et plus, au choix de chacun....


Données statistiques de la station
Quotidien Rapport Juillet 6, 2017 Unités:  Métrique    Anglais   les deux
« Précédent Jour
Suivant Jour »
Quotidien Hebdomadaire Mensuel Annuel Actuel
  Haut: Bas: Moyen:
Température: 32.9 °C 15.5 °C 21.8 °C
Pt de rosée: 23.0 °C 13.0 °C 16.5 °C
Humidité: 93 % 37 % 73 %
Vitesse du vent: 19.8 km/h 0.0 km/h 6.2 km/h
Rafales: 23.0 km/h - -
Vent:- - ESE
Pression: 1018.2 hPa 0.0 hPa -
Précipitation: 0.0 mm    
Historical Graphs
 
 
Données statistiques pour Juillet 6, 2017
Heure Température Point de rosée Pression Vent Vitesse du vent Refales Humidité Pluie (taux horaire)
00:03 17.7 °C 14.0 °C 1018.2 hPa NNE 4.7 km/h 9.0 km/h 78 % 0.0 mm
00:08 17.6 °C 14.0 °C 1018.2 hPa NE 1.4 km/h 9.0 km/h 79 % 0.0 mm
00:13 17.5 °C 14.0 °C 1018.2 hPa ENE 7.6 km/h 8.7 km/h 79 % 0.0 mm
00:18 17.4 °C 14.0 °C 1018.2 hPa NE 4.0 km/h 8.7 km/h 80 % 0.0 mm
00:23 17.3 °C 14.0 °C 1018.2 hPa NE 6.9 km/h 6.9 km/h 80 % 0.0 mm
00:28 17.2 °C 14.0 °C 1018.2 hPa NE 5.0 km/h 9.3 km/h 80 % 0.0 mm
00:33 17.3 °C 14.0 °C 1018.2 hPa Calm   9.3 km/h 80 % 0.0 mm
00:38 17.3 °C 14.0 °C 1018.2 hPa Calm   9.3 km/h 80 % 0.0 mm
00:43 17.4 °C 14.0 °C 1018.2 hPa ENE 3.5 km/h 9.3 km/h 81 % 0.0 mm
00:48 17.5 °C 14.0 °C 1018.2 hPa NE 9.0 km/h 9.7 km/h 80 % 0.0 mm
00:54 17.5 °C 14.0 °C 1018.2 hPa ENE 6.9 km/h 9.7 km/h 81 % 0.0 mm
00:59 17.6 °C 14.0 °C 1018.2 hPa NE 8.7 km/h 10.5 km/h 81 % 0.0 mm
01:04 17.6 °C 14.0 °C 1018.2 hPa NE 9.0 km/h 10.5 km/h 81 % 0.0 mm
01:09 17.6 °C 14.0 °C 1018.2 hPa NE 9.7 km/h 10.1 km/h 81 % 0.0 mm
01:14 17.6 °C 14.0 °C 1018.2 hPa NE 6.9 km/h 10.8 km/h 81 % 0.0 mm
01:19 17.6 °C 14.0 °C 1018.2 hPa NE 5.0 km/h 10.8 km/h 81 % 0.0 mm
01:24 17.6 °C 14.0 °C 1018.2 hPa NE 5.8 km/h 9.7 km/h 81 % 0.0 mm
01:29 17.4 °C 14.0 °C 1018.2 hPa NE 4.7 km/h 9.7 km/h 81 % 0.0 mm
01:34 17.2 °C 14.0 °C 1018.2 hPa NNE 1.4 km/h 6.4 km/h 81 % 0.0 mm
01:39 17.0 °C 14.0 °C 1018.2 hPa North 5.8 km/h 7.2 km/h 81 % 0.0 mm
01:44 16.8 °C 14.0 °C 1018.2 hPa Calm   7.2 km/h 82 % 0.0 mm
01:49 16.6 °C 14.0 °C 1018.2 hPa NE 6.1 km/h 9.3 km/h 83 % 0.0 mm
01:54 16.5 °C 14.0 °C 1018.2 hPa ENE 3.5 km/h 9.3 km/h 84 % 0.0 mm
01:59 16.3 °C 14.0 °C 1018.2 hPa Calm   9.3 km/h 84 % 0.0 mm
02:04 16.2 °C 14.0 °C 1018.2 hPa NNE 4.3 km/h 6.9 km/h 84 % 0.0 mm
02:09 16.2 °C 14.0 °C 1018.2 hPa NNE 5.8 km/h 9.7 km/h 85 % 0.0 mm
02:14 16.2 °C 14.0 °C 1018.2 hPa Calm   10.1 km/h 86 % 0.0 mm
02:19 16.2 °C 14.0 °C 1018.2 hPa NE 1.4 km/h 10.1 km/h 85 % 0.0 mm
02:24 16.3 °C 14.0 °C 1018.2 hPa NE 7.2 km/h 10.1 km/h 86 % 0.0 mm
02:29 16.3 °C 14.0 °C 1018.2 hPa NE 5.0 km/h 10.1 km/h 86 % 0.0 mm
02:34 16.4 °C 14.0 °C 1018.2 hPa Calm   10.1 km/h 86 % 0.0 mm
02:39 16.4 °C 14.0 °C 1018.2 hPa NE 5.8 km/h 10.1 km/h 86 % 0.0 mm
02:44 16.3 °C 14.0 °C 1018.2 hPa ENE 6.1 km/h 7.6 km/h 86 % 0.0 mm
02:49 16.3 °C 14.0 °C 1018.2 hPa ENE 6.9 km/h 7.2 km/h 86 % 0.0 mm
02:54 16.2 °C 14.0 °C 1018.2 hPa Calm   7.2 km/h 86 % 0.0 mm
02:59 16.1 °C 14.0 °C 1018.2 hPa Calm   6.9 km/h 86 % 0.0 mm
03:04 16.0 °C 14.0 °C 1018.2 hPa Calm   1.8 km/h 86 % 0.0 mm
03:05 16.0 °C 14.0 °C 1018.2 hPa Calm   1.8 km/h 86 % 0.0 mm
03:10 15.8 °C 13.0 °C 1018.2 hPa Calm   1.8 km/h 86 % 0.0 mm
03:15 15.6 °C 13.0 °C 1018.2 hPa Calm     86 % 0.0 mm
03:20 15.5 °C 13.0 °C 1018.2 hPa Calm     86 % 0.0 mm
03:25 15.5 °C 14.0 °C 1018.2 hPa Calm     87 % 0.0 mm
03:30 15.6 °C 14.0 °C 1018.2 hPa Calm   4.3 km/h 88 % 0.0 mm
03:35 15.6 °C 14.0 °C 1018.2 hPa Calm   4.3 km/h 88 % 0.0 mm
03:40 15.7 °C 14.0 °C 1018.2 hPa Calm   4.0 km/h 88 % 0.0 mm
03:45 15.8 °C 14.0 °C 1018.2 hPa ENE 1.8 km/h 5.0 km/h 88 % 0.0 mm
03:50 15.8 °C 14.0 °C 1016.8 hPa Calm   5.0 km/h 88 % 0.0 mm
03:55 15.8 °C 14.0 °C 1016.8 hPa Calm   5.0 km/h 88 % 0.0 mm
04:00 15.9 °C 14.0 °C 1016.8 hPa Calm   5.0 km/h 88 % 0.0 mm
04:05 15.8 °C 14.0 °C 1016.8 hPa Calm   4.7 km/h 88 % 0.0 mm
04:10 15.9 °C 14.0 °C 1016.8 hPa Calm   3.5 km/h 88 % 0.0 mm
04:15 16.0 °C 14.0 °C 1016.8 hPa Calm   3.5 km/h 88 % 0.0 mm
04:17 16.0 °C 14.0 °C 1016.8 hPa ENE 4.7 km/h 4.7 km/h 88 % 0.0 mm
04:22 16.1 °C 14.0 °C 1016.8 hPa Calm   4.7 km/h 88 % 0.0 mm
04:27 16.2 °C 14.0 °C 1016.8 hPa ENE 1.4 km/h 4.7 km/h 88 % 0.0 mm
04:32 16.3 °C 14.0 °C 1016.8 hPa NE 3.2 km/h 6.1 km/h 88 % 0.0 mm
04:37 16.3 °C 14.0 °C 1016.8 hPa Calm   6.1 km/h 88 % 0.0 mm
04:42 16.3 °C 14.0 °C 1016.8 hPa Calm   4.7 km/h 88 % 0.0 mm
04:47 16.4 °C 14.0 °C 1016.8 hPa Calm   6.4 km/h 88 % 0.0 mm
04:52 16.5 °C 15.0 °C 1016.8 hPa Calm   6.4 km/h 88 % 0.0 mm
04:57 16.5 °C 15.0 °C 1016.8 hPa NE 1.4 km/h 5.0 km/h 87 % 0.0 mm
05:02 16.5 °C 15.0 °C 1018.2 hPa Calm   5.8 km/h 87 % 0.0 mm
05:07 16.5 °C 15.0 °C 1018.2 hPa Calm   5.8 km/h 87 % 0.0 mm
05:12 16.5 °C 15.0 °C 1018.2 hPa Calm     87 % 0.0 mm
05:17 16.4 °C 14.0 °C 1016.8 hPa Calm   2.6 km/h 87 % 0.0 mm
05:22 16.4 °C 14.0 °C 1016.8 hPa Calm   2.6 km/h 87 % 0.0 mm
05:27 16.3 °C 14.0 °C 1016.8 hPa Calm     87 % 0.0 mm
05:32 16.3 °C 14.0 °C 1016.8 hPa Calm   6.9 km/h 87 % 0.0 mm
05:37 16.3 °C 14.0 °C 1016.8 hPa Calm   6.9 km/h 87 % 0.0 mm
05:42 16.4 °C 14.0 °C 1016.8 hPa ENE 2.6 km/h 4.3 km/h 87 % 0.0 mm
05:48 16.5 °C 15.0 °C 1016.8 hPa ENE 6.9 km/h 7.9 km/h 87 % 0.0 mm
05:53 16.6 °C 15.0 °C 1016.8 hPa NE 5.0 km/h 7.9 km/h 87 % 0.0 mm
05:58 16.6 °C 14.0 °C 1016.8 hPa Calm   7.9 km/h 86 % 0.0 mm
06:03 16.6 °C 14.0 °C 1016.8 hPa ESE 1.4 km/h 5.0 km/h 86 % 0.0 mm
06:13 16.8 °C 14.0 °C 1016.8 hPa Calm   1.4 km/h 85 % 0.0 mm
06:18 17.0 °C 14.0 °C 1016.8 hPa ENE 5.0 km/h 5.0 km/h 84 % 0.0 mm
06:23 17.2 °C 14.0 °C 1016.8 hPa ENE 1.4 km/h 5.0 km/h 83 % 0.0 mm
06:28 17.2 °C 14.0 °C 1016.8 hPa Calm   6.4 km/h 83 % 0.0 mm
06:33 17.3 °C 14.0 °C 1016.8 hPa East 4.3 km/h 6.4 km/h 83 % 0.0 mm
06:38 17.4 °C 14.0 °C 1016.8 hPa East 6.1 km/h 8.7 km/h 83 % 0.0 mm
06:43 17.5 °C 15.0 °C 1016.8 hPa East 8.7 km/h 8.7 km/h 83 % 0.0 mm
06:48 17.5 °C 15.0 °C 1016.1 hPa Calm   8.7 km/h 82 % 0.0 mm
06:58 17.7 °C 15.0 °C 1016.1 hPa ESE 6.4 km/h 9.7 km/h 82 % 0.0 mm
07:03 17.8 °C 15.0 °C 1016.8 hPa ESE 5.0 km/h 9.7 km/h 82 % 0.0 mm
07:08 17.9 °C 15.0 °C 1016.8 hPa Calm   9.3 km/h 82 % 0.0 mm
07:13 17.9 °C 15.0 °C 1016.8 hPa Calm   6.9 km/h 82 % 0.0 mm
07:18 18.0 °C 15.0 °C 1016.8 hPa Calm   6.4 km/h 82 % 0.0 mm
07:23 18.2 °C 15.0 °C 1016.8 hPa Calm   6.4 km/h 82 % 0.0 mm
07:28 18.4 °C 15.0 °C 1016.8 hPa Calm   5.0 km/h 81 % 0.0 mm
07:33 18.4 °C 15.0 °C 1016.8 hPa East 6.4 km/h 7.9 km/h 81 % 0.0 mm
07:38 18.5 °C 15.0 °C 1016.8 hPa East 6.4 km/h 7.9 km/h 81 % 0.0 mm
07:43 18.6 °C 15.0 °C 1016.8 hPa Calm   9.7 km/h 81 % 0.0 mm
07:48 18.7 °C 15.0 °C 1016.8 hPa East 6.1 km/h 9.7 km/h 81 % 0.0 mm
07:53 18.8 °C 15.0 °C 1016.8 hPa ESE 5.5 km/h 9.7 km/h 81 % 0.0 mm
07:59 18.8 °C 15.0 °C 1016.8 hPa Calm   11.6 km/h 81 % 0.0 mm
08:04 18.9 °C 16.0 °C 1016.8 hPa Calm   11.6 km/h 81 % 0.0 mm
08:09 18.9 °C 16.0 °C 1016.8 hPa ENE 4.3 km/h 9.7 km/h 81 % 0.0 mm
08:14 19.0 °C 16.0 °C 1016.8 hPa ENE 9.0 km/h 10.5 km/h 81 % 0.0 mm
08:19 19.1 °C 16.0 °C 1016.8 hPa NNE 9.0 km/h 10.5 km/h 80 % 0.0 mm
08:24 19.3 °C 16.0 °C 1016.8 hPa Calm   10.5 km/h 80 % 0.0 mm
08:29 19.6 °C 16.0 °C 1016.8 hPa East 6.1 km/h 9.3 km/h 80 % 0.0 mm
08:34 19.9 °C 17.0 °C 1016.8 hPa East 4.0 km/h 9.3 km/h 80 % 0.0 mm
08:39 20.7 °C 17.0 °C 1016.8 hPa East 11.9 km/h 11.9 km/h 79 % 0.0 mm
08:44 21.0 °C 17.0 °C 1016.8 hPa East 8.7 km/h 11.9 km/h 77 % 0.0 mm
08:49 21.0 °C 17.0 °C 1018.2 hPa ENE 5.8 km/h 11.9 km/h 76 % 0.0 mm
08:54 21.1 °C 17.0 °C 1018.2 hPa ENE 7.9 km/h 10.5 km/h 76 % 0.0 mm
08:59 21.3 °C 17.0 °C 1018.2 hPa ENE 11.1 km/h 13.0 km/h 75 % 0.0 mm
09:05 21.7 °C 17.0 °C 1016.8 hPa ESE 9.7 km/h 13.0 km/h 75 % 0.0 mm
09:10 22.3 °C 17.0 °C 1016.8 hPa East 10.1 km/h 12.6 km/h 73 % 0.0 mm
09:15 22.5 °C 18.0 °C 1016.8 hPa ENE 7.6 km/h 12.6 km/h 72 % 0.0 mm
09:20 22.8 °C 18.0 °C 1016.8 hPa East 9.7 km/h 12.6 km/h 72 % 0.0 mm
09:25 23.1 °C 17.0 °C 1016.8 hPa East 9.3 km/h 13.7 km/h 69 % 0.0 mm
09:30 23.6 °C 18.0 °C 1016.8 hPa SE 1.4 km/h 13.7 km/h 70 % 0.0 mm
09:35 23.9 °C 18.0 °C 1016.1 hPa East 7.6 km/h 12.6 km/h 68 % 0.0 mm
09:40 24.2 °C 18.0 °C 1016.1 hPa ENE 9.7 km/h 14.0 km/h 66 % 0.0 mm
09:45 24.8 °C 18.0 °C 1016.1 hPa ENE 6.9 km/h 16.3 km/h 66 % 0.0 mm
09:50 24.6 °C 18.0 °C 1016.1 hPa ESE 13.0 km/h 16.3 km/h 65 % 0.0 mm
09:55 24.9 °C 18.0 °C 1016.1 hPa East 6.9 km/h 15.4 km/h 64 % 0.0 mm
10:00 25.3 °C 18.0 °C 1016.1 hPa East 7.9 km/h 13.0 km/h 63 % 0.0 mm
10:05 25.3 °C 18.0 °C 1016.1 hPa East 9.0 km/h 13.0 km/h 62 % 0.0 mm
10:10 25.7 °C 18.0 °C 1016.1 hPa East 12.2 km/h 16.6 km/h 60 % 0.0 mm
10:11 25.8 °C 18.0 °C 1016.1 hPa ESE 10.5 km/h 16.6 km/h 60 % 0.0 mm
10:16 26.1 °C 18.0 °C 1016.1 hPa East 11.1 km/h 16.6 km/h 60 % 0.0 mm
10:21 26.3 °C 18.0 °C 1016.1 hPa East 4.0 km/h 15.8 km/h 58 % 0.0 mm
10:26 26.5 °C 18.0 °C 1016.1 hPa East 15.8 km/h 16.9 km/h 57 % 0.0 mm
10:31 26.6 °C 18.0 °C 1015.1 hPa East 16.6 km/h 16.9 km/h 57 % 0.0 mm
10:36 26.6 °C 17.0 °C 1015.1 hPa SE 12.2 km/h 16.6 km/h 56 % 0.0 mm
10:41 27.0 °C 17.0 °C 1015.1 hPa ENE 12.6 km/h 17.7 km/h 55 % 0.0 mm
10:46 27.3 °C 18.0 °C 1015.1 hPa East 11.6 km/h 17.7 km/h 54 % 0.0 mm
10:51 27.4 °C 18.0 °C 1015.1 hPa SSE 14.8 km/h 14.8 km/h 56 % 0.0 mm
10:58 27.1 °C 17.0 °C 1015.1 hPa ENE 4.7 km/h 14.8 km/h 55 % 0.0 mm
11:09 26.4 °C 17.0 °C 1015.1 hPa ESE 5.8 km/h 16.9 km/h 55 % 0.0 mm
11:11 26.2 °C 17.0 °C 1015.1 hPa SE 6.9 km/h 16.9 km/h 55 % 0.0 mm
11:14 26.2 °C 17.0 °C 1015.1 hPa ESE 10.5 km/h 16.9 km/h 56 % 0.0 mm
11:20 25.8 °C 17.0 °C 1016.1 hPa ESE 3.5 km/h 11.9 km/h 58 % 0.0 mm
11:21 25.5 °C 17.0 °C 1016.1 hPa Calm   11.9 km/h 58 % 0.0 mm
11:22 25.5 °C 17.0 °C 1016.1 hPa Calm   11.9 km/h 58 % 0.0 mm
11:24 25.3 °C 17.0 °C 1016.1 hPa Calm   11.9 km/h 58 % 0.0 mm
11:26 25.2 °C 17.0 °C 1016.1 hPa Calm   11.9 km/h 59 % 0.0 mm
11:27 25.2 °C 17.0 °C 1016.1 hPa Calm   11.9 km/h 59 % 0.0 mm
11:30 24.9 °C 17.0 °C 1016.1 hPa WSW 8.7 km/h 9.7 km/h 60 % 0.0 mm
11:31 24.8 °C 17.0 °C 1016.8 hPa WSW 5.8 km/h 8.7 km/h 60 % 0.0 mm
11:34 24.5 °C 17.0 °C 1016.8 hPa WSW 10.5 km/h 13.0 km/h 61 % 0.0 mm
11:39 24.2 °C 17.0 °C 1016.8 hPa SW 10.8 km/h 17.2 km/h 62 % 0.0 mm
11:44 23.5 °C 18.0 °C 1016.8 hPa SSW 10.1 km/h 20.9 km/h 69 % 0.0 mm
11:49 22.5 °C 18.0 °C 1018.2 hPa SSE 7.6 km/h 20.9 km/h 74 % 0.0 mm
11:54 22.1 °C 18.0 °C 1018.2 hPa Calm   17.2 km/h 76 % 0.0 mm
11:59 21.6 °C 18.0 °C 1018.2 hPa Calm   9.0 km/h 80 % 0.0 mm
12:04 21.2 °C 18.0 °C 1016.8 hPa SE 6.9 km/h 9.0 km/h 81 % 0.0 mm
12:09 20.9 °C 18.0 °C 1016.8 hPa Calm   9.0 km/h 83 % 0.0 mm
12:14 20.8 °C 18.0 °C 1016.8 hPa Calm   7.6 km/h 83 % 0.0 mm
12:19 20.6 °C 18.0 °C 1016.8 hPa SE 7.6 km/h 10.1 km/h 85 % 0.0 mm
12:24 20.4 °C 18.0 °C 1016.8 hPa SE 5.0 km/h 10.1 km/h 87 % 0.0 mm
12:29 20.3 °C 19.0 °C 1016.8 hPa ESE 10.1 km/h 10.5 km/h 90 % 0.0 mm
12:39 20.0 °C 19.0 °C 1016.8 hPa NE 19.8 km/h 19.8 km/h 91 % 0.0 mm
12:45 19.8 °C 18.0 °C 1016.8 hPa ESE 9.3 km/h 19.8 km/h 91 % 0.0 mm
12:50 19.8 °C 18.0 °C 0.0 hPa SSE 4.3 km/h 19.8 km/h 91 % 0.0 mm
12:55 19.8 °C 18.0 °C 0.0 hPa SE 11.6 km/h 12.6 km/h 92 % 0.0 mm
13:00 19.8 °C 18.0 °C 1014.1 hPa SE 13.7 km/h 13.7 km/h 92 % 0.0 mm
13:05 19.9 °C 19.0 °C 1014.1 hPa Calm   14.0 km/h 93 % 0.0 mm
13:10 20.0 °C 19.0 °C 1014.1 hPa SE 8.7 km/h 14.0 km/h 92 % 0.0 mm
13:15 20.3 °C 19.0 °C 1015.1 hPa ESE 7.9 km/h 10.5 km/h 93 % 0.0 mm
13:20 20.8 °C 20.0 °C 1015.1 hPa ESE 11.6 km/h 11.6 km/h 93 % 0.0 mm
13:25 21.4 °C 20.0 °C 1015.1 hPa ESE 6.4 km/h 11.6 km/h 93 % 0.0 mm
13:30 22.6 °C 22.0 °C 1015.1 hPa East 11.9 km/h 11.9 km/h 93 % 0.0 mm
13:35 23.4 °C 22.0 °C 1015.1 hPa SE 16.3 km/h 16.6 km/h 91 % 0.0 mm
13:40 24.0 °C 22.0 °C 1015.1 hPa SE 16.3 km/h 16.6 km/h 89 % 0.0 mm
13:45 24.5 °C 23.0 °C 1015.1 hPa ENE 10.1 km/h 16.3 km/h 87 % 0.0 mm
13:50 24.9 °C 22.0 °C 1015.1 hPa SE 9.7 km/h 16.3 km/h 83 % 0.0 mm
13:55 25.5 °C 23.0 °C 1015.1 hPa SE 9.7 km/h 10.1 km/h 83 % 0.0 mm
14:00 25.4 °C 22.0 °C 1014.1 hPa SE 9.7 km/h 9.7 km/h 79 % 0.0 mm
14:05 25.0 °C 21.0 °C 1014.1 hPa SE 9.7 km/h 9.7 km/h 77 % 0.0 mm
14:10 25.0 °C 21.0 °C 1014.1 hPa SE 9.7 km/h 9.7 km/h 76 % 0.0 mm
14:15 24.9 °C 21.0 °C 1014.1 hPa SE 9.7 km/h 9.7 km/h 76 % 0.0 mm
14:20 25.0 °C 20.0 °C 1014.1 hPa SE 9.7 km/h 9.7 km/h 74 % 0.0 mm
14:25 25.0 °C 20.0 °C 1014.1 hPa East 10.8 km/h 10.8 km/h 73 % 0.0 mm
14:30 25.0 °C 20.0 °C 1014.1 hPa East 9.7 km/h 10.8 km/h 71 % 0.0 mm
14:35 26.0 °C 21.0 °C 1014.1 hPa ESE 9.3 km/h 10.8 km/h 73 % 0.0 mm
14:40 26.7 °C 22.0 °C 1014.1 hPa ESE 9.3 km/h 9.7 km/h 72 % 0.0 mm
14:45 27.6 °C 22.0 °C 1014.1 hPa South 15.8 km/h 15.8 km/h 69 % 0.0 mm
14:50 28.6 °C 22.0 °C 1014.1 hPa South 15.8 km/h 15.8 km/h 67 % 0.0 mm
14:56 29.0 °C 21.0 °C 1014.1 hPa SE 9.7 km/h 15.8 km/h 62 % 0.0 mm
15:01 29.6 °C 21.0 °C 1013.1 hPa SE 15.8 km/h 15.8 km/h 58 % 0.0 mm
15:06 29.9 °C 19.0 °C 1013.1 hPa SE 15.8 km/h 15.8 km/h 53 % 0.0 mm
15:11 30.2 °C 19.0 °C 1013.1 hPa SE 14.0 km/h 15.8 km/h 50 % 0.0 mm
15:16 30.7 °C 19.0 °C 1013.1 hPa SSE 10.5 km/h 15.8 km/h 50 % 0.0 mm
15:21 31.0 °C 19.0 °C 1013.1 hPa SE 10.8 km/h 14.0 km/h 48 % 0.0 mm
15:26 31.2 °C 18.0 °C 1013.1 hPa SE 13.7 km/h 16.6 km/h 45 % 0.0 mm
15:31 31.5 °C 19.0 °C 1013.1 hPa SE 5.8 km/h 17.2 km/h 45 % 0.0 mm
15:36 31.7 °C 18.0 °C 1013.1 hPa South 5.0 km/h 17.2 km/h 44 % 0.0 mm
15:41 31.1 °C 18.0 °C 1013.1 hPa South 12.6 km/h 16.3 km/h 44 % 0.0 mm
15:46 31.3 °C 19.0 °C 1013.1 hPa South 12.6 km/h 15.4 km/h 46 % 0.0 mm
15:51 31.4 °C 19.0 °C 1013.1 hPa SSE 6.4 km/h 12.6 km/h 47 % 0.0 mm
15:56 32.0 °C 20.0 °C 1013.1 hPa SE 10.1 km/h 13.0 km/h 48 % 0.0 mm
16:01 32.2 °C 20.0 °C 1013.1 hPa SE 10.1 km/h 13.0 km/h 48 % 0.0 mm
16:06 32.3 °C 18.0 °C 1013.1 hPa ESE 6.4 km/h 10.1 km/h 43 % 0.0 mm
16:11 32.1 °C 18.0 °C 1013.1 hPa ESE 6.4 km/h 6.4 km/h 42 % 0.0 mm
16:16 32.2 °C 18.0 °C 1013.1 hPa ESE 6.4 km/h 6.4 km/h 43 % 0.0 mm
16:21 32.4 °C 19.0 °C 1013.1 hPa East 15.1 km/h 15.1 km/h 44 % 0.0 mm
16:26 32.2 °C 18.0 °C 1013.1 hPa SE 18.3 km/h 18.3 km/h 41 % 0.0 mm
16:32 32.3 °C 18.0 °C 1012.1 hPa South 11.9 km/h 20.9 km/h 41 % 0.0 mm
16:37 32.3 °C 17.0 °C 1012.1 hPa SE 6.4 km/h 23.0 km/h 40 % 0.0 mm
16:42 32.1 °C 16.0 °C 1012.1 hPa SSE 10.5 km/h 23.0 km/h 38 % 0.0 mm
16:47 32.4 °C 16.0 °C 1013.1 hPa SE 4.7 km/h 21.2 km/h 38 % 0.0 mm
16:52 32.9 °C 18.0 °C 1013.1 hPa SSE 3.5 km/h 19.5 km/h 40 % 0.0 mm
16:57 32.9 °C 17.0 °C 1013.1 hPa SSE 15.8 km/h 15.8 km/h 37 % 0.0 mm
17:02 32.7 °C 17.0 °C 1013.1 hPa ESE 16.6 km/h 21.2 km/h 38 % 0.0 mm
17:07 32.7 °C 17.0 °C 1013.1 hPa SE 19.5 km/h 21.2 km/h 38 % 0.0 mm
17:12 32.7 °C 17.0 °C 1013.1 hPa ESE 14.8 km/h 19.5 km/h 38 % 0.0 mm
17:17 32.7 °C 17.0 °C 1013.1 hPa SSE 6.1 km/h 19.8 km/h 39 % 0.0 mm
17:22 32.6 °C 17.0 °C 1013.1 hPa SSE 12.6 km/h 21.9 km/h 39 % 0.0 mm
17:27 32.7 °C 18.0 °C 1013.1 hPa East 8.7 km/h 21.9 km/h 40 % 0.0 mm
17:32 32.6 °C 17.0 °C 1013.1 hPa SSE 15.4 km/h 20.6 km/h 39 % 0.0 mm
17:39 32.4 °C 17.0 °C 1013.1 hPa South 16.6 km/h 20.6 km/h 40 % 0.0 mm
17:44 32.5 °C 18.0 °C 1013.1 hPa SSE 13.0 km/h 20.6 km/h 41 % 0.0 mm
Le Gheer Warneton
Courtoisie de Weather Underground - 2 mb

Mise a jour : 17-12-17 09:08:12
Généré par Cumulus 1.9.4 (1099)